photo revisi220_zps1z1e1cfv.gif
 photo revisi220_zps1z1e1cfv.gif

Jackpot

Texas Poker Multi Jackpot System

Kini Telah hadir Jackpot SUPER ROYAL FLUSH

Kini Telah hadir Jackpot 2000 (khusus table VIP keatas).

Ikutilah global jackpot yang tersedia di system kami, dengan system jackpot terbaru dan pertama di indonesia, anda dapat membeli jackpot dengan harga 100 rupiah saja dan menangkan hadiahnya hingga puluhan juta rupiah.

Jackpot bukanlah suatu keharusan untuk dibeli, namun kami memberikan suatu fitur tambahan untuk member tercinta dari www.indovippoker.com.

Terdapat tiga pilihan harga jackpot yang bisa anda beli yaitu :100,500,1000 dan 2000(khusus table VIP Keatas) rupiah.

Hadiah dari Multi jackpot system www.indovippoker.com

  1. full house x 10 harga jackpot yang anda beli.
      (contoh:anda membeli 1000 maka:1000 X10 = 10.000)
  2. four of kind x 250 harga jackpot yang anda beli
      (contoh:anda membeli 1000 maka:1000 X250 = 250.000)
  3. Straight flush x 1200
      (contoh:anda membeli 1000 maka:1000 X1200 = 1.200.000)
  4. Royal flush x 10000 harga jackpot yang anda beli
      (contoh:anda membeli 1000 maka:1000 X10000 = 10.000.000)
  5. SUPER ROYAL FLUSH x 30000 harga jackpot yang anda beli
      (contoh:anda membeli 1000 maka:1000 X30000 = 30.000.000)

Kondisi kartu

  1. full house adalah kondisi kartu dimana kartu anda dan kartu tengah dengan total 7 kartu bisa mendapatkan nilai 5 kartu dengan kombinasi 1 tris(three of kind) dan 1 pair, contoh 3 kartu 10 dan 2 kartu 5
  2. Four of kind adalah kondisi kartu dimana kartu anda dan kartu tengah dengan total 7 kartu bisa mendapatkan nilai 5 kartu dengan kombinasi 4 kartu yang sama jumlah dan 1 kartu apapun juga contoh anda mendapatkan 4 buah kartu angka 3 dan 1 kartu apapun.
  3. Staright flush adalah kondisi kartu dimana kartu anda dan kartu tengah dengan total 7 kartu bisa mendapatkan nilai 5 kartu dengan kombinasi seri / staright dengan kembang yang sama contoh : urutan kartu dari angka 5, 6, 7, 8 , 9 10 dengan kembang yg sama misalnya as hati
  4. Royal flush adalah kondisi kartu dimana kartu anda dan kartu tengah dengan total 7 kartu bisa mendapatkan nilai 5 kartu dengan kombinasi seri / staright dengan kembang yang sama tetapi kartu tersebut haruslah dimulai dari 10. contoh 10, Queen, Jack, King dan aces dengan kembang yang sama
  5. Super Royal flush adalah kondisi kartu dimana Kedua kartu anda digabung dengan 3 kartu pertama meja haruslah royal flush. contoh kartu anda 10,Queen kembang sama dan 3 kartu pertama meja adalah Jack, King dan aces dengan kembang yang sama

Demikian adalah penjelasan dari Multi Jackpot www.indovippoker.com terima kasih dan selamat bermain salam hoki dari kami

Texas Poker Jackpot Winner

TOP SUPER ROYAL FLUSH
No.TanggalNamaPriceWin
119/01 15:59HITAM7878Super Royal flush60,000,000
219/01 14:20NOVIASARISuper Royal flush15,000,000
319/01 11:40FAUZI029Super Royal flush3,000,000
419/01 10:17GWEEN88Super Royal flush6,000,000
519/01 06:54KHEDZGJ6H7Super Royal flush3,000,000
TOP ROYAL FLUSH
No.TanggalNamaPriceWin
119/01 16:32JOJONAVIN9Royal flush2,000,000
219/01 16:31DWBTET196Royal flush10,000,000
319/01 16:20YE5U5_C0L1Royal flush1,000,000
419/01 16:03LARIII123Royal flush5,000,000
519/01 15:57FAHRUL46Royal flush2,000,000
TOP STRAIGHT FLUSH
No.TanggalNamaPriceWin
119/01 16:38GODHANDS8Straight Flush1,200,000
219/01 16:37REGAR31Straight Flush240,000
319/01 16:36M4DCUY0IStraight Flush120,000
419/01 16:36BEA77Straight Flush600,000
519/01 16:34ENJEL08Straight Flush120,000
LATEST JACKPOT
No.TanggalNamaPriceWin
119/01 16:39BAUEEEFull House5,000
219/01 16:39LIA_2177Full House2,000
319/01 16:39JIMADFull House5,000
419/01 16:395R33TFull House2,000
519/01 16:39MRNATAFull House2,000
619/01 16:39AUTAN17Full House5,000
719/01 16:39BC_HOKYFull House2,000
819/01 16:39AABKADAA9Full House1,000
919/01 16:39RESTU8899Full House5,000
1019/01 16:39SENTOT17Full House10,000
1119/01 16:39SUOTH999Full House1,000
1219/01 16:39NURULWHITEFull House5,000
1319/01 16:39IONGSOZE22Full House1,000
1419/01 16:39SUDERIFull House10,000
1519/01 16:39CIPULIRFull House1,000
1619/01 16:39170845Full House2,000
1719/01 16:39TIKUS6891Full House2,000
1819/01 16:39DEMEZ66Full House5,000
1919/01 16:39TILARFull House20,000
2019/01 16:39ANGG407Full House1,000
2119/01 16:39K4S1HH186Four Of A Kind25,000
2219/01 16:39CEKOOOOFull House2,000
2319/01 16:39FIKRI77Full House2,000
2419/01 16:39NOW11Full House5,000
2519/01 16:39B3DBOY999Full House1,000
2619/01 16:39ALVINO50Full House1,000
2719/01 16:39ZAINULHAFull House5,000
2819/01 16:39PAPS0420Four Of A Kind125,000
2919/01 16:39HYPEROYALFull House5,000
3019/01 16:39FTGHEQZAOVFull House5,000
3119/01 16:39KHURASANIFull House1,000
3219/01 16:39ALDA98Full House2,000
3319/01 16:39J3REM1Full House2,000
3419/01 16:39BOLLENGZFull House1,000
3519/01 16:39CHACHAXFull House1,000
3619/01 16:39LOVELYBEEFull House2,000
3719/01 16:39ABGPPHH66Full House10,000
3819/01 16:39BMS21Four Of A Kind25,000
3919/01 16:39CHUBA002Full House10,000
4019/01 16:38THEJOKER99Full House5,000
4119/01 16:38TOP_PTKFull House20,000
4219/01 16:38MENKCI88Full House10,000
4319/01 16:38NOM0J9U519Full House10,000
4419/01 16:38SOCKBREKFull House2,000
4519/01 16:38BLANTONG22Full House2,000
4619/01 16:38TEKTOKTEKFull House2,000
4719/01 16:38YKB881048Full House2,000
4819/01 16:38TEMPOER7Full House20,000
4919/01 16:38O13Z60RVN8Full House2,000
5019/01 16:38BALUSE00Full House5,000

Domino Multi Jackpot System

Ikutilah global jackpot yang tersedia di system kami, dengan system jackpot terbaru dan pertama di indonesia, anda dapat membeli jackpot dengan harga 100 rupiah saja dan menangkan hadiahnya hingga puluhan juta rupiah.

Jackpot bukanlah suatu keharusan untuk dibeli, namun kami memberikan suatu fitur tambahan untuk member tercinta dari www.indovippoker.com.

Terdapat tiga pilihan harga jackpot yang bisa anda beli yaitu :100,500 dan 1000 rupiah.

Hadiah dari Multi jackpot system www.indovippoker.com

  1. Murni Kecil x 50 harga jackpot yang anda beli.
      (contoh:anda membeli 1000 maka:1000 X 50 = 50.000)
  2. Murni Besar x 50 harga jackpot yang anda beli
      (contoh:anda membeli 1000 maka:1000 X 50 = 50.000)
  3. BALAK x 100 harga jackpot yang anda beli
      (contoh:anda membeli 1000 maka:1000 X 100 = 100.000)
  4. ENAM DEWA x 6666 harga jackpot yang anda beli
      (contoh:anda membeli 1000 maka:1000 X 6666 = 6.666.000)

Demikian adalah penjelasan dari Multi Jackpot www.indovippoker.com terima kasih dan selamat bermain salam hoki dari kami

Domino Jackpot Winner

TOP ENAM DEWA
No.TanggalNamaPriceWin
119/01 16:23DM189094murni enam3,333,000
219/01 16:17DWTGEPENGSmurni enam666,600
319/01 15:13E22839F8murni enam6,666,000
419/01 15:09BIRBOY473murni enam3,333,000
519/01 13:46KIO1murni enam666,600
TOP BALAK
No.TanggalNamaPriceWin
119/01 16:38TN789balak10,000
219/01 16:37GRESLI12balak100,000
319/01 16:34JUDIJU88balak100,000
419/01 16:33AZAZIObalak100,000
519/01 16:31DG_JUDIQQ9balak50,000
LATEST JACKPOT
No.TanggalNamaPriceWin
119/01 16:39C4KE3Pmurni kecil25,000
219/01 16:39KKEDANmurni besar5,000
319/01 16:38TN789balak10,000
419/01 16:37RILEXS07murni besar50,000
519/01 16:37LB883710murni besar50,000
619/01 16:37YUNTILmurni kecil5,000
719/01 16:37GRESLI12balak100,000
819/01 16:36FUKPOKER99murni besar25,000
919/01 16:36MUNENG01murni besar5,000
1019/01 16:36DN4DACOANDI77murni kecil25,000
1119/01 16:34QNET876murni besar25,000
1219/01 16:34STICKER5lucky9950,000
1319/01 16:34XXRICKYXXmurni kecil5,000
1419/01 16:34JUDIJU88balak100,000
1519/01 16:33NXTTOURmurni besar25,000
1619/01 16:33ROMLAH1234murni kecil5,000
1719/01 16:33AZAZIObalak100,000
1819/01 16:32VV805murni besar50,000
1919/01 16:31BARBARQQmurni kecil25,000
2019/01 16:31ANOV1murni kecil50,000
2119/01 16:31DG_JUDIQQ9balak50,000
2219/01 16:31SUGALI365murni kecil5,000
2319/01 16:30RATTIH99murni kecil25,000
2419/01 16:29MUNENG01balak10,000
2519/01 16:29YELIS94balak10,000
2619/01 16:29NYONCLOmurni kecil25,000
2719/01 16:29FANEZ99murni besar50,000
2819/01 16:29EM2LORMM5Qmurni besar25,000
2919/01 16:28HASIJU14lucky9910,000
3019/01 16:28UJIGALAIbalak50,000
3119/01 16:27UYU808murni kecil50,000
3219/01 16:27SAT1OO1murni besar25,000
3319/01 16:27POK3R9929lucky9925,000
3419/01 16:27POHANG81murni kecil25,000
3519/01 16:26FANEZ99balak100,000
3619/01 16:25MARYANTO70murni kecil50,000
3719/01 16:25ZAKI2903murni besar50,000
3819/01 16:25MCGmurni besar50,000
3919/01 16:25POHANG81balak50,000
4019/01 16:25ASELOLE9HQbalak100,000
4119/01 16:23OSAKAVIPmurni kecil50,000
4219/01 16:23XXRICKYXXmurni kecil5,000
4319/01 16:23SICANTIQUmurni kecil25,000
4419/01 16:23DM189094murni enam3,333,000
4519/01 16:22RACUN058balak50,000
4619/01 16:22OUYAGbalak100,000
4719/01 16:22BARBARQQmurni besar25,000
4819/01 16:22NI3murni besar50,000
4919/01 16:22SUTULmurni besar50,000
5019/01 16:21H4NTU_90murni kecil50,000

Ceme Multi Jackpot System

Jackpot dilihat dari gabungan kartu pemain dengan kartu bandar. Bandar harus membeli jackpot sebanyak jumlah player yang sedang duduk. Sebagai contoh bila terdapat 3 pemain duduk bermain, dan bandar memutuskan untuk membeli jackpot Rp 1.000, maka pada periode tersebut bandar akan membeli jackpot sebanyak 3xRp1.000 = Rp3.000.

Jackpot bukanlah suatu keharusan untuk dibeli, namun kami memberikan suatu fitur tambahan untuk member tercinta dari www.indovippoker.com.

Terdapat tiga pilihan harga jackpot yang bisa anda beli yaitu :100,500 dan 1000 rupiah.

Hadiah dari Multi jackpot system www.indovippoker.com

  1. Murni Kecil x 50 harga jackpot yang anda beli.
      (contoh:anda membeli 1000 maka:1000 X 50 = 50.000)
  2. Murni Besar x 50 harga jackpot yang anda beli
      (contoh:anda membeli 1000 maka:1000 X 50 = 50.000)
  3. BALAK x 200 harga jackpot yang anda beli
      (contoh:anda membeli 1000 maka:1000 X 200 = 200.000)
  4. ENAM DEWA x 6666 harga jackpot yang anda beli
      (contoh:anda membeli 1000 maka:1000 X 6666 = 6.666.000)

Demikian adalah penjelasan dari Multi Jackpot www.indovippoker.com terima kasih dan selamat bermain salam hoki dari kami

Ceme Jackpot Winner

TOP ENAM DEWA
No.TanggalNamaPriceWin
119/01 16:18OPETDOANGmurni enam6,666,000
219/01 16:08S5O0N2O0murni enam666,600
319/01 16:00MANJAT56murni enam3,333,000
419/01 15:58O98ONNJGIQmurni enam6,666,000
519/01 15:37PEANGJRmurni enam3,333,000
TOP BALAK
No.TanggalNamaPriceWin
119/01 16:39BXDNLEOQ9Jbalak200,000
219/01 16:39BOGELGNZbalak200,000
319/01 16:39DAVID1524balak200,000
419/01 16:38PS89balak200,000
519/01 16:38BONCOS45balak200,000
LATEST JACKPOT
No.TanggalNamaPriceWin
119/01 16:39TYCOND37murni kecil5,000
219/01 16:39PR3M_murni kecil50,000
319/01 16:39BXDNLEOQ9Jbalak200,000
419/01 16:39BOGELGNZbalak200,000
519/01 16:39CEPOK205murni besar50,000
619/01 16:39DAVID_77murni besar25,000
719/01 16:39DAVID1524balak200,000
819/01 16:39SORMIN1077murni kecil5,000
919/01 16:39SYAH8888murni kecil25,000
1019/01 16:39YIN2000murni kecil25,000
1119/01 16:38OPAL232murni kecil5,000
1219/01 16:38BALCONE94murni kecil5,000
1319/01 16:38PS89balak200,000
1419/01 16:38BONCOS45balak200,000
1519/01 16:38VO1HFU7KGOmurni kecil25,000
1619/01 16:38T4DSEMBILAN9murni kecil25,000
1719/01 16:38BL3NDINGmurni kecil50,000
1819/01 16:38RAKAELDmurni kecil5,000
1919/01 16:38RISKY7777murni kecil50,000
2019/01 16:38AAN_2905murni besar5,000
2119/01 16:38ABDAU86murni besar50,000
2219/01 16:38RINJA2balak200,000
2319/01 16:37JULIAA507murni kecil5,000
2419/01 16:37BOGIE72murni besar50,000
2519/01 16:37J0K3XWTZNYmurni kecil50,000
2619/01 16:37AFANDI822murni besar50,000
2719/01 16:37ARY1101murni besar5,000
2819/01 16:37MALADEEmurni besar5,000
2919/01 16:37PETONK888murni kecil50,000
3019/01 16:37JEMZ0606murni kecil25,000
3119/01 16:37POTEH001murni kecil5,000
3219/01 16:37HACKERRRRmurni kecil50,000
3319/01 16:37UCIES22murni kecil5,000
3419/01 16:37AKF13murni kecil50,000
3519/01 16:37JULING020murni kecil25,000
3619/01 16:37NUGIMAY01murni kecil50,000
3719/01 16:37ARUN24murni kecil5,000
3819/01 16:37PR3M_murni kecil50,000
3919/01 16:37ICHA1122murni kecil50,000
4019/01 16:37RBTLOZZmurni besar50,000
4119/01 16:37MUNIRMUNIRmurni besar50,000
4219/01 16:36BRANNDO14murni kecil5,000
4319/01 16:36GARDA14murni kecil50,000
4419/01 16:36MAERALADAmurni kecil50,000
4519/01 16:36IPOELGDXmurni besar50,000
4619/01 16:36WENTRI12murni besar50,000
4719/01 16:36SAGMSmurni besar5,000
4819/01 16:35WEDOS158murni kecil50,000
4919/01 16:35TUANMUDA89murni kecil50,000
5019/01 16:35MANTOK99murni kecil50,000